Location: Klein M�hlingen
(51.9472°N, 11.7453°E)
Time: 06:57:58
(UTC+00:00)

STARLINK-1143 - Visible Passes

Search period start: 11 August 2020 00:00
Search period end: 21 August 2020 00:00
Orbit: 549 x 551 km, 53.0° (Epoch: 11 August)

Date Brightness Start Highest point End Pass type
(mag) Time Alt. Az. Time Alt. Az. Time Alt. Az.
11 Aug 3.8 20:03:44 10° W 20:07:54 75° N 20:12:03 10° E visible
11 Aug 3.5 21:43:25 10° WNW 21:47:34 75° SSW 21:48:09 62° SE visible
11 Aug 6.1 23:23:19 10° W 23:23:46 12° W 23:23:46 12° W visible
12 Aug 3.8 19:58:17 10° W 20:02:26 76° N 20:06:36 10° E visible
12 Aug 3.5 21:37:56 10° WNW 21:42:03 65° SSW 21:42:25 61° S visible
13 Aug 3.7 19:52:49 10° W 19:56:59 78° N 20:01:07 10° E visible
13 Aug 3.7 21:32:28 10° WNW 21:36:32 55° SSW 21:36:44 55° SSW visible
14 Aug 3.7 19:47:21 10° W 19:51:32 81° N 19:55:28 11° E visible
14 Aug 3.9 21:27:01 10° WNW 21:31:01 46° SSW 21:31:06 46° SSW visible
15 Aug 3.6 19:41:54 10° WNW 19:46:05 87° NNE 19:49:52 12° ESE visible
15 Aug 4.3 21:21:35 10° W 21:25:27 38° SSW 21:25:30 38° SSW visible
16 Aug 3.6 19:36:26 10° WNW 19:40:37 86° SSW 19:44:18 13° ESE visible
16 Aug 4.6 21:16:12 10° W 21:19:54 32° SW 21:19:56 32° SW visible
17 Aug 3.6 19:30:59 10° WNW 19:35:08 77° SSW 19:38:47 13° ESE visible
17 Aug 4.9 21:10:52 10° W 21:14:19 26° SW 21:14:25 26° SW visible
18 Aug 3.7 19:25:32 10° WNW 19:29:39 67° SSW 19:33:18 13° ESE visible
18 Aug 5.3 21:05:35 10° W 21:08:43 21° SW 21:08:56 21° SW visible
19 Aug 3.9 19:20:05 10° WNW 19:24:10 57° SSW 19:27:52 12° SE visible
19 Aug 5.6 21:00:26 10° W 21:03:06 17° SW 21:03:30 16° SW visible
20 Aug 4.2 19:14:39 10° WNW 19:18:39 48° SSW 19:22:29 11° SE visible
20 Aug 5.9 20:55:31 10° WSW 20:57:29 13° SW 20:58:08 13° SW visible
